[[{"header":{"parameterUnit":"m.s-1","parameterCategory":1,"la1":30.2991,"la2":30.254,"lo1":-89.0895,"lo2":-89.0444,"dy":0.0017,"dx":0.0017,"nx":28,"ny":28,"refTime":"2024-07-28T03:00:00:Z","depth":0,"parameterNumber":2,"parameterNumberName":"U-component_of_WINDS"},"data":[0,0,0,0,0,0,0,0,0,0,0,0,0,0,0,0,0,0,0,0,0,0,0,0,0,0,0,0,0,0,0,0,0,0,0,0,0,0,0,0,0,0,0,0,0,0,0,0,0,0,0,0,0,0,0,0,0,0,0.6529,0.6529,0,0.6499,0.6499,0.6499,0.6482,0.6482,0.6482,0.6482,0.6451,0.645,0.6449,0,0,0,0,0,0,0,0,0,0,0,0,0,0.6569,0.6568,0.6529,0.6529,0.6528,0.65,0.6499,0.6499,0.6482,0.6482,0.6482,0.6482,0.6451,0.645,0.6449,0,0,0,0,0,0,0,0,0,0,0,0,0,0.6547,0.6568,0.6529,0.6517,0.6515,0.65,0.6499,0.6499,0.6482,0.6482,0.6482,0.6482,0.6451,0.645,0.6449,0.6443,0,0,0.6445,0.6445,0,0,0,0,0,0,0,0,0.6548,0.6545,0.6519,0.6517,0.6516,0.6494,0.6502,0.648,0.6482,0.6495,0.6482,0.6482,0.6465,0.6463,0.6457,0.6442,0.6441,0.6445,0.6445,0.6444,0.6444,0,0,0,0,0,0,0,0.655,0.6546,0.6517,0.6518,0.6517,0.6512,0.6508,0.6498,0.6481,0.6493,0.6492,0.6489,0.6464,0.6459,0.6457,0.644,0.6445,0.6444,0.6444,0.6443,0.6417,0.6417,0,0,0,0,0,0,0.6553,0.6548,0.6518,0.6516,0.6532,0.6511,0.6507,0.6501,0.6481,0.6478,0.6489,0.6488,0.6461,0.6458,0.6455,0.6446,0.6444,0.6443,0.6442,0.6417,0.6417,0.6417,0,0,0,0,0,0,0.6554,0.6551,0.6519,0.6532,0.6527,0.651,0.6504,0.6501,0.6495,0.6477,0.6474,0.6486,0.6461,0.6457,0.6446,0.6445,0.6442,0.6441,0.6417,0.6417,0.6417,0.6429,0,0,0,0,0,0,0.6556,0.6551,0.655,0.6532,0.6527,0.6511,0.6504,0.65,0.6493,0.6492,0.6474,0.6471,0.646,0.6448,0.6445,0.6443,0.644,0.6417,0.6417,0.6417,0.6429,0.6429,0.643,0,0,0,0,0,0.6557,0.6555,0.655,0.6546,0.6524,0.6511,0.6508,0.6496,0.6493,0.6491,0.6479,0.6472,0.6446,0.6447,0.6444,0.6442,0.6417,0.6417,0.6417,0.6428,0.6429,0.643,0,0,0,0,0,0,0.6573,0.6552,0.6546,0.6538,0.6527,0.6509,0.6505,0.6498,0.6487,0.6486,0.6471,0.6467,0.6457,0.6448,0.645,0.6434,0.643,0.6429,0.644,0.6441,0.6442,0.6444,0.644,0,0,0,0,0,0.6575,0.6567,0.6549,0.6544,0.6538,0.6523,0.6517,0.6508,0.6495,0.649,0.6478,0.6465,0.6454,0.6447,0.6436,0.6427,0.6422,0.6424,0.6425,0.6425,0.6425,0.6418,0.6418,0.6416,0.6416,0.6416,0,0,0.658,0.6568,0.6564,0.6546,0.6536,0.6527,0.6519,0.651,0.6502,0.6489,0.6477,0.6468,0.6453,0.6442,0.6437,0.6435,0.6424,0.6425,0.6426,0.6425,0.6418,0.6418,0.6418,0.6416,0.6416,0.6416,0,0,0.6585,0.6575,0.6569,0.6559,0.6544,0.6533,0.6532,0.6514,0.6507,0.6496,0.6485,0.6476,0.6457,0.6446,0.6438,0.6437,0.6429,0.6434,0.6438,0.6431,0.6431,0.6431,0.6429,0.6429,0.6433,0.6433,0.6433,0,0.6593,0.6579,0.6567,0.6558,0.655,0.6537,0.6529,0.652,0.6502,0.6497,0.6494,0.6469,0.6459,0.6445,0.6444,0.6439,0.6435,0.6436,0.6432,0.6432,0.6432,0.643,0.643,0.6434,0.6434,0.6434,0.6434,0,0.6589,0.658,0.6577,0.6559,0.6551,0.6543,0.6528,0.6521,0.6513,0.6502,0.649,0.6476,0.6461,0.6457,0.6449,0.6441,0.644,0.6435,0.6431,0.6433,0.6431,0.643,0.6435,0.6435,0.6435,0.6434,0,0,0.6604,0.6578,0.6577,0.6569,0.655,0.6542,0.6533,0.6519,0.6512,0.65,0.6491,0.6475,0.647,0.6461,0.6451,0.6445,0.6443,0.6441,0.644,0.6441,0.6432,0.6436,0.6435,0.6438,0.6438,0.6438,0.6433,0,0.6605,0.6588,0.6576,0.6563,0.6554,0.654,0.6532,0.6519,0.6509,0.6499,0.6487,0.6475,0.647,0.6464,0.6458,0.6445,0.6441,0.6445,0.6429,0.6428,0.6432,0.6435,0.6438,0.6435,0.6433,0.6432,0.6432,0,0.6604,0.6592,0.6579,0.656,0.6555,0.6548,0.6533,0.6524,0.6508,0.6501,0.649,0.648,0.6469,0.6466,0.6449,0.6451,0.6444,0.6436,0.6436,0.6433,0.643,0.6431,0.6434,0.6433,0.6431,0.6431,0.6431,0,0.6614,0.6595,0.6584,0.6577,0.6555,0.655,0.6541,0.6526,0.6517,0.6504,0.6498,0.6483,0.6475,0.6463,0.6449,0.6448,0.6433,0.6429,0.6425,0.6426,0.6423,0.6423,0.6423,0.6419,0.6419,0.6419,0.6419,0,0.6617,0.6609,0.6588,0.6581,0.6572,0.6557,0.6547,0.6537,0.6523,0.6513,0.6501,0.6492,0.6474,0.6462,0.6451,0.6437,0.6434,0.6427,0.6424,0.6428,0.6429,0.6422,0.6422,0.6419,0.6419,0.6419,0.6419,0,0.6626,0.6612,0.6599,0.658,0.6574,0.6568,0.6551,0.6543,0.6532,0.6519,0.6515,0.6497,0.6483,0.6467,0.6448,0.644,0.6427,0.6423,0.6432,0.643,0.6427,0.6427,0.6423,0.6421,0.6419,0.6419,0.6419,0,0.6628,0.6622,0.6601,0.6594,0.6585,0.6573,0.6564,0.6549,0.654,0.6521,0.6516,0.65,0.6487,0.6464,0.6449,0.6433,0.6428,0.6428,0.6426,0.6429,0.6427,0.6427,0.6426,0.6428,0.6428,0.6428,0.6428,0,0.6633,0.6626,0.6614,0.6599,0.6589,0.6577,0.6564,0.6558,0.654,0.653,0.6515,0.6505,0.6484,0.6469,0.6451,0.644,0.6431,0.6429,0.6427,0.6431,0.6436,0.6432,0.6433,0.6429,0.6429,0.6429,0.6429,0.6429,0.6638,0.6632,0.6616,0.6602,0.6591,0.6579,0.657,0.6557,0.6545,0.6527,0.6518,0.6503,0.6486,0.6461,0.6451,0.6437,0.6435,0.6433,0.6432,0.6431,0.6432,0.6438,0.6434,0.6434,0.6434,0.6434,0.6434,0,0.6642,0.6631,0.6618,0.66,0.6589,0.6582,0.6567,0.6558,0.6545,0.653,0.6517,0.6499,0.6483,0.6466,0.6449,0.6442,0.6437,0.6437,0.6438,0.6435,0.6436,0.6438,0.6442,0.6442,0.6442,0.6442,0.6442,0.6442,0.6642,0.663,0.6621,0.6602,0.6591,0.6576,0.6567,0.6555,0.6544,0.6524,0.6511,0.65,0.6484,0.6465,0.645,0.6445,0.6439,0.6441,0.6435,0.6436,0.6435,0.6435,0.6437,0.644,0.644,0.6435,0.6435,0.6435]},{"header":{"parameterUnit":"m.s-1","parameterCategory":1,"la1":30.2991,"la2":30.254,"lo1":-89.0895,"lo2":-89.0444,"dy":0.0017,"dx":0.0017,"nx":28,"ny":28,"refTime":"2024-07-28T03:00:00:Z","depth":0,"parameterNumber":3,"parameterNumberName":"V-component_of_WINDS"},"data":[0,0,0,0,0,0,0,0,0,0,0,0,0,0,0,0,0,0,0,0,0,0,0,0,0,0,0,0,0,0,0,0,0,0,0,0,0,0,0,0,0,0,0,0,0,0,0,0,0,0,0,0,0,0,0,0,0,0,3.143,3.1431,0,3.1523,3.1524,3.1525,3.1494,3.1492,3.149,3.1488,3.158,3.1585,3.1589,0,0,0,0,0,0,0,0,0,0,0,0,0,3.122,3.1225,3.143,3.1431,3.1432,3.1523,3.1524,3.1525,3.1494,3.1492,3.149,3.1487,3.1579,3.1584,3.1589,0,0,0,0,0,0,0,0,0,0,0,0,0,3.1312,3.1226,3.1429,3.1428,3.1428,3.1522,3.1524,3.1525,3.1495,3.1492,3.1489,3.1486,3.1577,3.1584,3.159,3.169,0,0,3.161,3.1613,0,0,0,0,0,0,0,0,3.1307,3.132,3.1427,3.1428,3.1429,3.1494,3.1484,3.1581,3.1496,3.147,3.1488,3.1485,3.1554,3.1562,3.1586,3.1695,3.1699,3.161,3.1614,3.1617,3.1619,0,0,0,0,0,0,0,3.1301,3.1316,3.1466,3.1428,3.143,3.1421,3.143,3.1502,3.1527,3.1472,3.147,3.1481,3.1554,3.158,3.1588,3.17,3.161,3.1616,3.162,3.1623,3.1892,3.1895,0,0,0,0,0,0,3.1294,3.1311,3.1463,3.1469,3.1359,3.1427,3.1438,3.1476,3.1527,3.1531,3.1484,3.148,3.157,3.158,3.1591,3.1709,3.1617,3.1623,3.1627,3.1889,3.1892,3.1896,0,0,0,0,0,0,3.129,3.1308,3.146,3.1389,3.1408,3.1434,3.1477,3.1479,3.1505,3.1536,3.154,3.1506,3.1568,3.1582,3.1665,3.1712,3.1626,3.1632,3.1885,3.189,3.1894,3.1948,0,0,0,0,0,0,3.1284,3.1307,3.1347,3.1391,3.1412,3.1534,3.148,3.1483,3.1517,3.1512,3.1558,3.1562,3.1567,3.1656,3.1672,3.172,3.1637,3.1881,3.1887,3.1893,3.1943,3.1955,3.1965,0,0,0,0,0,3.1277,3.1358,3.1349,3.1367,3.1462,3.1537,3.1549,3.1554,3.1521,3.156,3.1579,3.1561,3.1705,3.1665,3.1682,3.1733,3.1878,3.1885,3.1892,3.1938,3.1952,3.1965,0,0,0,0,0,0,3.1318,3.1364,3.1354,3.1452,3.1491,3.1531,3.1581,3.1569,3.1617,3.1611,3.1614,3.1624,3.1709,3.1729,3.1684,3.1831,3.1786,3.1797,3.1814,3.1829,3.184,3.1832,3.1642,0,0,0,0,0,3.1339,3.1397,3.1433,3.1517,3.1536,3.1556,3.1588,3.1588,3.1628,3.1644,3.1669,3.1707,3.1761,3.1796,3.1847,3.1946,3.1953,3.1989,3.2,3.2009,3.2018,3.2069,3.2084,3.192,3.192,3.192,0,0,3.1383,3.1414,3.1451,3.1526,3.1556,3.1614,3.1569,3.1634,3.1676,3.1653,3.1733,3.1753,3.1795,3.1886,3.1927,3.1905,3.2065,3.2018,3.2025,3.203,3.2078,3.2093,3.2107,3.1925,3.1924,3.1923,0,0,3.1491,3.1522,3.1593,3.1624,3.167,3.1682,3.1699,3.1741,3.1753,3.1833,3.1817,3.1867,3.196,3.199,3.2017,3.2134,3.2118,3.2151,3.2209,3.2258,3.2271,3.2282,3.2322,3.2336,3.216,3.2161,3.2161,0,3.1538,3.1627,3.1631,3.1696,3.1728,3.1711,3.1782,3.1811,3.1871,3.1893,3.1868,3.1982,3.201,3.2106,3.2134,3.2158,3.2176,3.2145,3.2269,3.2281,3.2291,3.2329,3.2344,3.2164,3.2164,3.2163,3.2163,0,3.1682,3.1743,3.1795,3.1853,3.1892,3.1959,3.1972,3.201,3.2006,3.202,3.21,3.2132,3.2189,3.2212,3.2209,3.2307,3.2291,3.2268,3.2223,3.231,3.2345,3.236,3.2169,3.2168,3.2167,3.2166,0,0,3.182,3.1878,3.1897,3.1922,3.1971,3.2017,3.2083,3.2138,3.2169,3.2211,3.2264,3.2342,3.232,3.2351,3.2352,3.2395,3.2483,3.2366,3.2367,3.2385,3.2589,3.2605,3.2622,3.2473,3.2476,3.2478,3.2585,0,3.193,3.2047,3.2052,3.2157,3.2212,3.2195,3.2252,3.2286,3.23,3.2348,3.2363,3.2417,3.2385,3.2404,3.2446,3.2463,3.2523,3.2456,3.252,3.2523,3.2509,3.2641,3.2659,3.2758,3.2599,3.2601,3.2603,0,3.2075,3.2121,3.2232,3.227,3.2293,3.2344,3.2394,3.244,3.2478,3.2485,3.2519,3.2512,3.2577,3.253,3.2618,3.2572,3.2598,3.2611,3.2615,3.2619,3.2567,3.2647,3.279,3.2804,3.2625,3.2623,3.2622,0,3.2162,3.2251,3.2328,3.235,3.2397,3.2433,3.2454,3.2489,3.2521,3.2564,3.2585,3.2635,3.2662,3.2699,3.2705,3.2671,3.2793,3.2747,3.2798,3.2798,3.2824,3.2822,3.2971,3.2844,3.2844,3.2843,3.2843,0,3.2284,3.2352,3.2367,3.2415,3.2489,3.2493,3.2566,3.2584,3.2615,3.2664,3.2653,3.2699,3.2705,3.2752,3.2757,3.2827,3.284,3.2845,3.2846,3.2846,3.2845,3.2862,3.2855,3.2847,3.2846,3.2846,3.2845,0,3.2393,3.2406,3.2489,3.2526,3.2537,3.259,3.2621,3.2665,3.2677,3.2739,3.2754,3.2773,3.2827,3.2837,3.2901,3.2904,3.2988,3.2982,3.2975,3.2974,3.3023,3.3018,3.3188,3.3209,3.307,3.3071,3.3072,0,3.2469,3.2521,3.2563,3.2595,3.2618,3.2671,3.2703,3.2708,3.2742,3.2788,3.2826,3.2879,3.2921,3.3008,3.3027,3.3075,3.3069,3.3125,3.3076,3.3074,3.3067,3.3063,3.3067,3.3134,3.3136,3.3137,3.3138,0,3.2602,3.2606,3.2654,3.2703,3.2742,3.2781,3.2818,3.2845,3.2855,3.2893,3.2949,3.2982,3.3046,3.3098,3.3146,3.3166,3.3153,3.3153,3.3167,3.3167,3.316,3.3162,3.2999,3.3149,3.3148,3.3147,3.3147,3.3146,3.2696,3.274,3.2776,3.2829,3.2857,3.2891,3.2934,3.2951,3.2998,3.3051,3.3051,3.3111,3.3145,3.3208,3.3231,3.3276,3.3258,3.3279,3.3284,3.3289,3.3292,3.3154,3.3285,3.3285,3.3285,3.3284,3.3284,0,3.2826,3.2849,3.2897,3.2949,3.299,3.2975,3.3014,3.3049,3.3102,3.3136,3.3177,3.324,3.3289,3.3311,3.336,3.3392,3.3387,3.3404,3.3401,3.3405,3.3307,3.3289,3.3407,3.3407,3.3407,3.3407,3.3407,3.3407,3.2899,3.2972,3.298,3.3065,3.3087,3.3146,3.3169,3.32,3.3226,3.3296,3.3338,3.3352,3.338,3.343,3.3474,3.3479,3.3496,3.3516,3.3518,3.3425,3.3413,3.3401,3.3384,3.352,3.352,3.3613,3.3613,3.3614]}]]